Погода в Аджикабуле

Азербайджан     40°01′58″N   48°56′06″E
темп.,
°C
ветер,
м/с
пор.,
м/с
влажн.,
%
обл.,
%
осадки,
мм/ч
давл.,
гПа
погр.,
м
11 мая, вт
вт1101:00+11юв236552 0.0 1022135
04:00+11в116632 0.0 102126
07:00+12юв11570 0.0 1021123
10:00+16ююз12374 0.0 10201065
13:00+19юз34381 0.0 10171590
16:00+21ю654338 0.0 10151631
19:00+17ююв885715 0.0 1016843
22:00+14ю23720 0.0 1016219
12 мая, ср
ср1201:00+14ю11781 0.0 101647
04:00+13юз11820 0.0 101610
07:00+14юз11790 0.0 1016154
10:00+18зюз226410 0.0 1016886
13:00+22ююз22470 0.0 10151213
16:00+25юв53440 0.0 10131169
19:00+20юв66580 0.0 1014532
22:00+17вюв34685 0.0 1016224
13 мая, чт
чт1301:00+16в2274100 0.0 101560
04:00+16вюв1176100 0.0 101513
07:00+16ююв11737 0.0 1016136
10:00+21зюз23550 0.0 1016655
13:00+26зюз21412 0.0 10141000
16:00+29ююв22340 0.0 10131120
19:00+24юв55500 0.0 1014383
22:00+20юв346767 0.0 1016192
14 мая, пт
пт1401:00+19ююв11721 0.0 101511
04:00+18ююз11720 0.0 101511
07:00+20з11651 0.0 101672
10:00+25зюз22455 0.0 1016534
13:00+30ююз22290 0.0 10151205
16:00+33юв55234 0.0 10132139
19:00+25вюв57420 0.0 1015389
22:00+22вюв22565 0.0 101535
15 мая, сб
сб1501:00+21в11574 0.0 101411
04:00+20в11520 0.0 101411
07:00+22ююз11440 0.0 101435
10:00+27з22280 0.0 1015564
13:00+31ююв23160 0.0 10141906
16:00+30юв76210 0.0 10131267
19:00
22:00+22юв223923 0.0 101519